EN

Hourly Weather Nehrovo

Today, 28 November, Saturday

Time Temperature Precipitation Wind Pressure Humidity
00:00 0°C° 0 mm 0 mps 748 mmHg 100%
01:00 +1°C° 0.1 mm 1 mps 747 mmHg 100%
02:00 0°C° 0 mm 1 mps 747 mmHg 96%
03:00 0°C° 0.1 mm 1 mps 747 mmHg 100%
04:00 0°C° 0.2 mm 1 mps 747 mmHg 100%
05:00 0°C° 0.4 mm 1 mps 747 mmHg 100%
06:00 0°C° 0.6 mm 1 mps 746 mmHg 100%
07:00 0°C° 0.7 mm 1 mps 746 mmHg 100%
08:00 0°C° 0.5 mm 1 mps 746 mmHg 100%
09:00 0°C° 0.5 mm 1 mps 746 mmHg 100%
10:00 +1°C° 0.5 mm 1 mps 746 mmHg 100%
11:00 +1°C° 0.4 mm 1 mps 746 mmHg 100%
12:00 +1°C° 0.3 mm 1 mps 746 mmHg 100%
13:00 +1°C° 0.4 mm 1 mps 746 mmHg 100%
14:00 +1°C° 0.3 mm 1 mps 746 mmHg 100%
15:00 +1°C° 0.1 mm 1 mps 746 mmHg 100%
16:00 +1°C° 0 mm 1 mps 745 mmHg 100%
17:00 0°C° 0 mm 1 mps 745 mmHg 100%
18:00 -1°C° 0 mm 0 mps 745 mmHg 100%
19:00 -1°C° 0 mm 0 mps 746 mmHg 98%
20:00 -1°C° 0 mm 0 mps 746 mmHg 97%
21:00 -1°C° 0 mm 0 mps 746 mmHg 99%
22:00 -1°C° 0 mm 0 mps 746 mmHg 99%
23:00 -1°C° 0 mm 0 mps 746 mmHg 100%

Tomorrow, 29 November, Sunday

Time Temperature Precipitation Wind Pressure Humidity
00:00 -1°C° 0 mm 0 mps 746 mmHg 100%
01:00 -1°C° 0 mm 0 mps 746 mmHg 99%
02:00 -1°C° 0 mm 0 mps 746 mmHg 99%
03:00 -1°C° 0.1 mm 0 mps 746 mmHg 100%
04:00 -1°C° 0.1 mm 0 mps 745 mmHg 100%
05:00 0°C° 0.2 mm 1 mps 745 mmHg 100%
06:00 0°C° 0.2 mm 1 mps 745 mmHg 100%
07:00 0°C° 0.2 mm 1 mps 745 mmHg 100%
08:00 0°C° 0.5 mm 1 mps 745 mmHg 100%
09:00 0°C° 0.7 mm 1 mps 745 mmHg 100%
10:00 0°C° 0.5 mm 1 mps 745 mmHg 100%
11:00 +1°C° 0.4 mm 1 mps 745 mmHg 100%
12:00 +1°C° 0.4 mm 1 mps 746 mmHg 100%
13:00 +1°C° 0.4 mm 1 mps 746 mmHg 99%
14:00 -1°C° 0.1 mm 2 mps 746 mmHg 97%
15:00 +1°C° 0 mm 1 mps 746 mmHg 97%
16:00 +1°C° 0 mm 1 mps 745 mmHg 97%
17:00 -1°C° 0 mm 0 mps 745 mmHg 96%
18:00 0°C° 0 mm 1 mps 745 mmHg 96%
19:00 0°C° 0 mm 1 mps 746 mmHg 92%
20:00 -1°C° 0 mm 0 mps 746 mmHg 88%
21:00 -1°C° 0 mm 0 mps 746 mmHg 88%
22:00 -1°C° 0 mm 0 mps 747 mmHg 89%
23:00 -1°C° 0 mm 0 mps 747 mmHg 89%

Day after tomorrow, 30 November, Monday

Time Temperature Precipitation Wind Pressure Humidity
00:00 -1°C° 0 mm 0 mps 747 mmHg 89%
01:00 -1°C° 0 mm 0 mps 747 mmHg 90%
02:00 -2°C° 0 mm 0 mps 747 mmHg 92%
03:00 -2°C° 0 mm 0 mps 747 mmHg 92%
04:00 -2°C° 0 mm 0 mps 747 mmHg 94%
05:00 -3°C° 0 mm 0 mps 747 mmHg 96%
06:00 -3°C° 0 mm 0 mps 748 mmHg 98%
07:00 -4°C° 0 mm 0 mps 748 mmHg 99%
08:00 -4°C° 0 mm 0 mps 749 mmHg 99%
09:00 -3°C° 0 mm 1 mps 749 mmHg 97%
10:00 -3°C° 0 mm 1 mps 749 mmHg 98%
11:00 -3°C° 0 mm 0 mps 750 mmHg 98%
12:00 -2°C° 0 mm 0 mps 750 mmHg 97%
13:00 0°C° 0 mm 1 mps 750 mmHg 96%
14:00 0°C° 0 mm 1 mps 750 mmHg 96%
15:00 +1°C° 0 mm 1 mps 750 mmHg 95%
16:00 +1°C° 0 mm 1 mps 750 mmHg 96%
17:00 0°C° 0 mm 1 mps 750 mmHg 97%
18:00 0°C° 0 mm 1 mps 750 mmHg 100%
19:00 0°C° 0 mm 1 mps 751 mmHg 99%
20:00 -1°C° 0 mm 1 mps 751 mmHg 100%
21:00 -2°C° 0 mm 0 mps 751 mmHg 100%
22:00 -2°C° 0 mm 0 mps 751 mmHg 100%
23:00 -3°C° 0 mm 0 mps 751 mmHg 100%

1 December, Tuesday

Time Temperature Precipitation Wind Pressure Humidity
00:00 -3°C° 0 mm 0 mps 751 mmHg 100%
01:00 -3°C° 0 mm 0 mps 751 mmHg 100%
02:00 -2°C° 0 mm 1 mps 751 mmHg 100%
03:00 -2°C° 0 mm 1 mps 751 mmHg 100%
04:00 -3°C° 0 mm 1 mps 751 mmHg 99%
05:00 -4°C° 0 mm 0 mps 751 mmHg 99%
06:00 -4°C° 0 mm 0 mps 751 mmHg 98%
07:00 -4°C° 0 mm 0 mps 751 mmHg 98%
08:00 -4°C° 0 mm 0 mps 751 mmHg 97%
09:00 -4°C° 0 mm 0 mps 751 mmHg 93%
10:00 -4°C° 0 mm 0 mps 751 mmHg 87%
11:00 -3°C° 0 mm 0 mps 751 mmHg 82%
12:00 -1°C° 0 mm 0 mps 751 mmHg 81%
13:00 0°C° 0 mm 0 mps 750 mmHg 80%
14:00 0°C° 0 mm 0 mps 750 mmHg 78%
15:00 +1°C° 0 mm 0 mps 750 mmHg 79%
16:00 0°C° 0 mm 0 mps 749 mmHg 81%
17:00 +1°C° 0 mm 1 mps 749 mmHg 76%
18:00 +1°C° 0 mm 1 mps 749 mmHg 67%
19:00 0°C° 0 mm 1 mps 749 mmHg 55%
20:00 -2°C° 0 mm 2 mps 749 mmHg 51%
21:00 -2°C° 0 mm 2 mps 749 mmHg 51%
22:00 -2°C° 0 mm 2 mps 749 mmHg 52%
23:00 -2°C° 0 mm 2 mps 749 mmHg 54%

2 December, Wednesday

Time Temperature Precipitation Wind Pressure Humidity
00:00 -2°C° 0 mm 2 mps 749 mmHg 54%
01:00 -2°C° 0 mm 2 mps 749 mmHg 55%
02:00 -2°C° 0 mm 2 mps 749 mmHg 55%
03:00 -2°C° 0 mm 2 mps 749 mmHg 55%
04:00 -2°C° 0 mm 2 mps 749 mmHg 54%
05:00 -2°C° 0 mm 2 mps 749 mmHg 54%
06:00 -2°C° 0 mm 2 mps 749 mmHg 54%
07:00 -2°C° 0 mm 2 mps 749 mmHg 53%
08:00 -2°C° 0 mm 2 mps 749 mmHg 53%
09:00 -2°C° 0 mm 2 mps 749 mmHg 53%
10:00 -1°C° 0 mm 2 mps 749 mmHg 54%
11:00 +1°C° 0 mm 2 mps 749 mmHg 60%
12:00 +2°C° 0 mm 2 mps 749 mmHg 65%
13:00 +2°C° 0 mm 2 mps 749 mmHg 68%
14:00 +4°C° 0 mm 1 mps 749 mmHg 71%
15:00 +4°C° 0 mm 1 mps 748 mmHg 73%
16:00 +3°C° 0 mm 1 mps 748 mmHg 78%
17:00 +1°C° 0 mm 2 mps 748 mmHg 74%
18:00 -1°C° 0 mm 2 mps 748 mmHg 75%
19:00 -1°C° 0 mm 3 mps 748 mmHg 77%
20:00 -1°C° 0 mm 3 mps 748 mmHg 77%
21:00 -1°C° 0 mm 3 mps 749 mmHg 78%
22:00 -1°C° 0 mm 3 mps 749 mmHg 78%
23:00 -1°C° 0 mm 3 mps 749 mmHg 81%

3 December, Thursday

Time Temperature Precipitation Wind Pressure Humidity
00:00 -2°C° 0 mm 4 mps 749 mmHg 82%
01:00 -2°C° 0 mm 4 mps 748 mmHg 83%
02:00 -2°C° 0 mm 4 mps 748 mmHg 85%
03:00 -2°C° 0 mm 4 mps 748 mmHg 86%
04:00 -2°C° 0 mm 4 mps 748 mmHg 86%
05:00 -3°C° 0 mm 4 mps 748 mmHg 85%
06:00 -3°C° 0 mm 4 mps 748 mmHg 85%
07:00 -3°C° 0 mm 4 mps 748 mmHg 85%
08:00 -3°C° 0 mm 4 mps 748 mmHg 85%
09:00 -2°C° 0 mm 4 mps 748 mmHg 84%
10:00 -1°C° 0 mm 4 mps 748 mmHg 83%
11:00 0°C° 0 mm 4 mps 748 mmHg 82%
12:00 +1°C° 0 mm 4 mps 747 mmHg 80%
13:00 +1°C° 0 mm 4 mps 747 mmHg 80%
14:00 +3°C° 0 mm 3 mps 747 mmHg 82%
15:00 +3°C° 0 mm 3 mps 746 mmHg 84%
16:00 +2°C° 0 mm 3 mps 746 mmHg 85%
17:00 0°C° 0 mm 4 mps 746 mmHg 83%
18:00 -1°C° 0 mm 4 mps 746 mmHg 80%
19:00 -1°C° 0 mm 4 mps 745 mmHg 79%
20:00 0°C° 0 mm 4 mps 745 mmHg 79%
21:00 0°C° 0 mm 5 mps 745 mmHg 79%
22:00 0°C° 0 mm 5 mps 745 mmHg 81%
23:00 0°C° 0 mm 4 mps 745 mmHg 81%
Show more

We Need Your Consent

Meteoprog and our Service Providers may store and access personal data such as cookies, device identifiers or other similar technologies on your device and process such data to personalise content and ads, as well as provide social media features and to analyse the traffic.

  • Store and/or access information on your device

    Cookies, device identifiers or other information can be stored or accessed on your device for the purposes indicated above.

  • Personalised ads and content, ad and content measurement, audience insights, and products development

    Ads and content can be personalised based on a profile. More data can be added to better personalise ads and content. Ad and content performance can be measured. Insights about the audience who saw the ads and content can be derived. Such data can be used to develop or improve user’s experience, systems and software.

By clicking ‘I Agree’ you will allow the use of indicated cookies, device identifiers, web beacons or other similar technologies. Your settings can be changed in the browser on your device.

For certain purposes, legitimate interests may be relied on, rather than consent. You can read more about this in our Privacy and Cookie Policy.